カタログに戻る

STARLINK-3750

運用中通信VLEO
NORAD 52311·PAYLOAD·🇺🇸 United States

打ち上げ Apr 21, 2022 から Cape Canaveral Space Force Station

Loading…

次のパス (今後24時間)

TLE

最新Source: CelesTrak SupGP

元期: Sep 15, 2026, 01:24 UTC

1 52311C 22041BC  26258.05881944  .00039505  00000+0  11985-2 0  2588
2 52311  53.1570 307.3621 0001179  92.2241  74.3229 15.33536162    18

AllMySatでSTARLINK-3750をリアルタイム追跡

Download on the App Store